Stampede Pass, WA

8:27 PM PDT on May 23, 2017 (GMT -0700)
Stampede Pass | | Change Station

Elev 3967 ft 47.28 °N, 121.33 °W | Updated 31 minutes ago

Overcast
Overcast
52 °F
Feels Like 52 °F
N
13
Wind Variable Wind from West
Gusts 25 mph

Today
High -- | Low -- °F
--% Chance of Precip.
Yesterday
High -- | Low -- °F
Precip. -- in
Pressure 29.90 in
Visibility 10.0 miles
Clouds Mostly Cloudy 1800 ft
Overcast 2200 ft
Dew Point 45 °F
Humidity 77%
Rainfall 0.00 in
Snow Depth Not available.
5:19 AM 8:45 PM
Waning Crescent, 4% visible
METAR KSMP 240256Z AUTO 27011G22KT 240V310 10SM BKN018 OVC022 11/07 A2995 RMK AO2 PK WND 27028/0211 SLP123 T01110072 56020
Pressure 29.90 in
Visibility 10.0 miles
Clouds Mostly Cloudy 1800 ft
Overcast 2200 ft
Dew Point 45 °F
Humidity 77%
Rainfall 0.00 in
Snow Depth Not available.
5:19 AM 8:45 PM
Waning Crescent, 4% visible
METAR KSMP 240256Z AUTO 27011G22KT 240V310 10SM BKN018 OVC022 11/07 A2995 RMK AO2 PK WND 27028/0211 SLP123 T01110072 56020

Get Severe Weather Alerts

Thanks for signing up!

Be on the lookout for a verification email in your inbox.

You'll start receiving the daily forecast at 6 AM.

×

10-Day Weather Forecast

Almanac

Astronomy

May. 23, 2017 Rise Set
Actual Time
Civil Twilight
Nautical Twilight
Astronomical Twilight
Moon
Length of Visible Light
Length of Day
Tomorrow will be .
, % of the Moon is Illuminated

Today's Extremes

State Highs State Lows

Community

WunderPhotos

Category 6

Welcome to Category 6. This is the collective home for Weather Underground's featured writeups by Dr. Jeff Masters (right), Bob Henson (left), Chris Burt, and other regular contributors.

Nearby

Air Quality

  Air Quality AQ Index Pollutant
Not available.

Snow Depth

Station Depth Elevation

Earthquake Activity

City Distance Mag. Time & Date
Minimum magnitude displayed is 2.5.

Coastal Water Temperatures

Place Temperature

Stations

Nearby Weather Stations

Station Location Temp. Windchill Dew Point Humidity Wind Precip. Elev Updated Type
                   

Watches & Warnings

There are currently no watches in effect.